User: anonymous   Login
Location: Ida Center
(41.8662°N, 83.5713°W)
Time: 08:43:21
(UTC+00:00)
Language:

Cosmos 1933 - Orbit

View from above orbital plane
View from above orbital plane
View from above satellite
View from above satellite

Ground track
Ground track

The orbit data is extracted from the following two-line orbital elements,

1 18958U 88020A   20025.39250158  .00000299  00000-0  19783-4 0  9993
2 18958  82.5286 264.6931 0010007 285.7347  74.2775 15.03672927734603
Epoch (UTC): 25 January 2020 09:25:12
Eccentricity: 0.0010007
inclination: 82.5286°
perigee height: 548 km
apogee height: 562 km
right ascension of ascending node: 264.6931°
argument of perigee: 285.7347°
revolutions per day: 15.03672927
mean anomaly at epoch: 74.2775°
orbit number at epoch: 73460

The dashed part of the orbit path shows where the satellite is in the earth's shadow,  

DLR